NOAA-14
1 23455U 94089A   05068.27304480 -.00000047  00000-0 -14846-6 0 05141
2 23455 099.1053 114.9134 0008413 282.2996 077.7188 14.13542314525384
SICH-1
1 23657U 95046A   05068.72347511  .00000689  00000-0  85250-4 0 03751
2 23657 082.5302 130.9719 0025864 089.9595 270.4671 14.81105014513231
NOAA-15
1 25338U 98030A   05068.89143839  .00000025  00000-0  29363-4 0 09573
2 25338 098.5174 080.2371 0009766 292.6166 067.3980 14.24492455354610
RESURS
1 25394U 98043A   05068.93208314 -.00000313  00000-0 -11763-3 0 00997
2 25394 098.5486 140.9306 0002429 097.1913 262.9539 14.24053532346328
FENGYUN1
1 25730U 99025A   05068.63184688  .00000258  00000-0  16425-3 0 03669
2 25730 098.6075 074.3961 0014806 028.4495 331.7462 14.11791401300463
OKEAN-0
1 25860U 99039A   05068.73297195  .00000231  00000-0  43156-4 0 03783
2 25860 097.7689 098.9512 0002013 134.5215 225.6126 14.73215893303362
NOAA-16
1 26536U 00055A   05068.88826933 -.00000137  00000-0 -49912-4 0 02667
2 26536 099.0026 026.8203 0010080 352.8826 007.2253 14.12214090230046
NOAA-17
1 27453U 02032A   05068.77038753 -.00000165  00000-0 -53309-4 0 02932
2 27453 098.6683 143.7608 0011411 348.4581 011.6336 14.23637710140697
HUBBLE
1 20580U 90037B   05068.69936095  .00000887  00000-0  57212-4 0 03156
2 20580 028.4663 196.9740 0003591 293.3312 066.6900 14.99618691615297
UARS
1 21701U 91063B   05068.61526883  .00001095  00000-0  97661-4 0 03956
2 21701 056.9819 233.6674 0007269 125.0276 235.2005 15.03777130738514
PO-34
1 25520U 98064B   05068.85229086  .00001364  00000-0  59003-4 0 01447
2 25520 028.4588 256.3347 0005299 220.5772 139.4426 15.16143955351492
ISS
1 25544U 98067A   05068.85335095  .00018656  00000-0  15238-3 0 09805
2 25544 051.6468 049.0602 0004190 169.9523 268.7323 15.70623798360066
OO-38
1 26063U 00004C   05068.61011955  .00000021  00000-0  27675-4 0 03020
2 26063 100.2273 270.3606 0036931 336.0671 023.8797 14.35705275268018
NO-45
1 26932U 01043D   05068.58574311  .00000175  00000-0  10069-3 0 09816
2 26932 067.0583 123.9682 0009020 264.4485 095.5598 14.29474239179562
